Flag for Czech Republic Weather past 2 weeks in Brno, Czech Republic

Now
43 °F

Passing clouds.


Feels Like: 39 °F
Forecast: 37 / 44 °F
Wind: 6 mph from Northwest

Location: Brno / Turany

Current Time: Dec 20, 2014 at 6:10:55 AM

Latest Report: Dec 20, 2014 at 5:00 AM


Visibility: 16 mi

Pressure: 30.09 "Hg

Humidity: 78%

Dew point: 36 °F

Location of BrnoLocation

Historic Weather in Brno — Graph

°F

Brno temperature yesterday

Maximum temperature yesterday: 57 °F (at 2:00 PM)
Minimum temperature yesterday: 45 °F (at 12:00 AM)
Average temperature yesterday: 50 °F

Past Weeks' High & Low Weather Summary

 TemperatureHumidityPressure
High57 °F (Dec 19, 2:00 PM)98% (Dec 14, 11:00 PM)30.45 "Hg (Dec 14, 11:00 PM)
Low27 °F (Dec 10, 7:00 AM)59% (Dec 9, 12:00 PM)29.87 "Hg (Dec 12, 5:00 PM)
Average39 °F87%30.07 "Hg
* Reported Dec 5 4:00 AM — Dec 20 4:00 AM, Brno, Weather by CustomWeather, © 2014

Note: Actual official high and low records may vary slightly from our data, if they occured in-between our weather recording intervals... More about our weather records

Advertising

Brno weather history for previous 24 hours

 ConditionsComfort  
Time TempWeatherWind HumidityBarometerVisibility
4:00 AM
Dec 20
45 °FLight rain. Overcast.7 mph86%30.06 "Hg16 mi
3:00 AM42 °FOvercast.3 mph90%30.03 "Hg16 mi
2:00 AM45 °FLight rain. Overcast.2 mph85%30.01 "Hg16 mi
1:00 AM45 °FLight rain. Overcast.3 mph84%30.00 "Hg16 mi
12:00 AM47 °FLight rain. Overcast.8 mph80%29.99 "Hg12 mi
11:00 PM
Dec 19
50 °FLight rain. Overcast.5 mph79%29.94 "Hg12 mi
9:00 PM50 °FOvercast.6 mph76%29.94 "Hg16 mi
8:00 PM50 °FOvercast.5 mph74%29.94 "Hg16 mi
7:00 PM50 °FOvercast.3 mph74%29.94 "Hg31 mi
6:00 PM50 °FOvercast.2 mph73%29.94 "Hg37 mi
5:00 PM50 °FOvercast.3 mph73%29.94 "Hg37 mi
4:00 PM53 °FOvercast.6 mph66%29.94 "Hg43 mi
3:00 PM54 °FOvercast.5 mph65%29.95 "Hg43 mi
2:00 PM57 °FPartly sunny.7 mph59%29.94 "Hg43 mi
1:00 PM56 °FPartly sunny.9 mph63%29.95 "Hg43 mi
12:00 PM56 °FPartly sunny.6 mph71%29.97 "Hg43 mi
11:00 AM53 °FPartly sunny.5 mph75%30.00 "Hg37 mi
10:00 AM54 °FPartly sunny.6 mph75%30.01 "Hg37 mi
9:00 AM51 °FScattered clouds.6 mph82%30.01 "Hg37 mi
8:00 AM50 °FScattered clouds.6 mph84%30.01 "Hg37 mi
7:00 AM50 °FOvercast.6 mph83%30.00 "Hg31 mi
6:00 AM48 °FOvercast.6 mph92%29.99 "Hg31 mi
Weather by CustomWeather, © 2014

See weather overviewHow to use our weather pages